• In Hungary
  • List of Countries
  • For 7 days
  • Water Temperature
  • Satellite Maps
  • Weather Map
  • News
  • Weather Widgets
  • user-avatar
    Login

    Hourly Weather Plachawy

    Today, 20 October, Saturday

    Time Temperature Precipitation Wind Pressure Humidity
    00:00 +7°C° 0 mm 1 mps 748 mmHg 87%
    01:00 +5°C° 0 mm 0 mps 748 mmHg 88%
    02:00 +5°C° 0 mm 0 mps 748 mmHg 88%
    03:00 +6°C° 0 mm 1 mps 747 mmHg 88%
    04:00 +6°C° 0 mm 1 mps 747 mmHg 88%
    05:00 +6°C° 0 mm 1 mps 747 mmHg 87%
    06:00 +6°C° 0 mm 1 mps 748 mmHg 86%
    07:00 +7°C° 0 mm 1 mps 748 mmHg 80%
    08:00 +8°C° 0 mm 1 mps 748 mmHg 77%
    09:00 +9°C° 0 mm 1 mps 748 mmHg 73%
    10:00 +10°C° 0 mm 1 mps 748 mmHg 70%
    11:00 +10°C° 0 mm 1 mps 748 mmHg 69%
    12:00 +10°C° 0 mm 1 mps 748 mmHg 67%
    13:00 +11°C° 0 mm 1 mps 748 mmHg 66%
    14:00 +11°C° 0 mm 1 mps 748 mmHg 68%
    15:00 +10°C° 0 mm 1 mps 748 mmHg 70%
    16:00 +10°C° 0 mm 1 mps 748 mmHg 72%
    17:00 +8°C° 0.1 mm 2 mps 748 mmHg 76%
    18:00 +8°C° 0.1 mm 2 mps 748 mmHg 80%
    19:00 +7°C° 0.1 mm 2 mps 748 mmHg 83%
    20:00 +6°C° 0 mm 2 mps 748 mmHg 85%
    21:00 +6°C° 0 mm 2 mps 748 mmHg 87%
    22:00 +6°C° 0 mm 2 mps 748 mmHg 89%
    23:00 +5°C° 0 mm 2 mps 748 mmHg 90%

    Tomorrow, 21 October, Sunday

    Time Temperature Precipitation Wind Pressure Humidity
    00:00 +6°C° 0 mm 1 mps 748 mmHg 91%
    01:00 +6°C° 0 mm 1 mps 749 mmHg 92%
    02:00 +6°C° 0 mm 1 mps 749 mmHg 92%
    03:00 +5°C° 0 mm 1 mps 749 mmHg 93%
    04:00 +5°C° 0 mm 1 mps 749 mmHg 93%
    05:00 +5°C° 0 mm 1 mps 749 mmHg 93%
    06:00 +5°C° 0 mm 1 mps 749 mmHg 93%
    07:00 +5°C° 0 mm 1 mps 750 mmHg 93%
    08:00 +7°C° 0 mm 1 mps 750 mmHg 86%
    09:00 +9°C° 0 mm 1 mps 750 mmHg 78%
    10:00 +11°C° 0 mm 1 mps 751 mmHg 71%
    11:00 +11°C° 0 mm 1 mps 751 mmHg 66%
    12:00 +12°C° 0 mm 1 mps 751 mmHg 62%
    13:00 +13°C° 0 mm 2 mps 751 mmHg 58%
    14:00 +12°C° 0 mm 1 mps 750 mmHg 61%
    15:00 +11°C° 0 mm 1 mps 750 mmHg 64%
    16:00 +11°C° 0 mm 1 mps 750 mmHg 67%
    17:00 +10°C° 0 mm 1 mps 750 mmHg 71%
    18:00 +9°C° 0 mm 1 mps 750 mmHg 75%
    19:00 +8°C° 0 mm 1 mps 750 mmHg 79%
    20:00 +7°C° 0 mm 2 mps 750 mmHg 81%
    21:00 +7°C° 0 mm 2 mps 750 mmHg 83%
    22:00 +6°C° 0 mm 2 mps 750 mmHg 85%
    23:00 +6°C° 0 mm 2 mps 750 mmHg 87%

    Day after tomorrow, 22 October, Monday

    Time Temperature Precipitation Wind Pressure Humidity
    00:00 +6°C° 0 mm 2 mps 750 mmHg 88%
    01:00 +5°C° 0 mm 2 mps 750 mmHg 90%
    02:00 +5°C° 0 mm 2 mps 749 mmHg 91%
    03:00 +4°C° 0 mm 3 mps 749 mmHg 92%
    04:00 +4°C° 0 mm 3 mps 749 mmHg 92%
    05:00 +4°C° 0 mm 3 mps 749 mmHg 93%
    06:00 +4°C° 0 mm 3 mps 748 mmHg 93%
    07:00 +4°C° 0 mm 3 mps 748 mmHg 94%
    08:00 +5°C° 0 mm 3 mps 748 mmHg 85%
    09:00 +7°C° 0 mm 4 mps 748 mmHg 77%
    10:00 +10°C° 0 mm 4 mps 748 mmHg 69%
    11:00 +9°C° 0 mm 5 mps 747 mmHg 65%
    12:00 +10°C° 0 mm 5 mps 747 mmHg 62%
    13:00 +12°C° 0 mm 5 mps 746 mmHg 59%
    14:00 +10°C° 0.2 mm 5 mps 746 mmHg 66%
    15:00 +10°C° 0.2 mm 4 mps 746 mmHg 72%
    16:00 +8°C° 0.2 mm 4 mps 746 mmHg 79%
    17:00 +8°C° 0.3 mm 4 mps 746 mmHg 79%
    18:00 +8°C° 0.3 mm 4 mps 746 mmHg 80%
    19:00 +7°C° 0.3 mm 4 mps 746 mmHg 81%
    20:00 +7°C° 0 mm 4 mps 746 mmHg 80%
    21:00 +6°C° 0 mm 4 mps 746 mmHg 79%
    22:00 +5°C° 0 mm 3 mps 746 mmHg 78%
    23:00 +5°C° 0 mm 3 mps 746 mmHg 78%

    23 October, Tuesday

    Time Temperature Precipitation Wind Pressure Humidity
    00:00 +4°C° 0 mm 3 mps 746 mmHg 79%
    01:00 +3°C° 0 mm 3 mps 746 mmHg 80%
    02:00 +3°C° 0 mm 3 mps 746 mmHg 81%
    03:00 +3°C° 0 mm 3 mps 745 mmHg 83%
    04:00 +3°C° 0 mm 3 mps 745 mmHg 85%
    05:00 +3°C° 0 mm 4 mps 745 mmHg 85%
    06:00 +3°C° 0 mm 4 mps 744 mmHg 85%
    07:00 +3°C° 0 mm 4 mps 744 mmHg 85%
    08:00 +3°C° 0 mm 5 mps 743 mmHg 80%
    09:00 +4°C° 0 mm 6 mps 742 mmHg 74%
    10:00 +5°C° 0 mm 7 mps 741 mmHg 69%
    11:00 +5°C° 0.6 mm 8 mps 740 mmHg 71%
    12:00 +3°C° 0.6 mm 9 mps 738 mmHg 73%
    13:00 +3°C° 0.6 mm 9 mps 737 mmHg 76%
    14:00 +3°C° 1.2 mm 10 mps 736 mmHg 78%
    15:00 +3°C° 1.2 mm 10 mps 734 mmHg 80%
    16:00 +3°C° 1.2 mm 10 mps 733 mmHg 82%
    17:00 +5°C° 1.4 mm 9 mps 731 mmHg 85%
    18:00 +5°C° 1.4 mm 9 mps 730 mmHg 87%
    19:00 +6°C° 1.4 mm 8 mps 729 mmHg 89%
    20:00 +6°C° 1.8 mm 8 mps 728 mmHg 89%
    21:00 +6°C° 1.8 mm 7 mps 727 mmHg 88%
    22:00 +8°C° 1.8 mm 7 mps 726 mmHg 87%
    23:00 +8°C° 0.5 mm 7 mps 726 mmHg 85%

    24 October, Wednesday

    Time Temperature Precipitation Wind Pressure Humidity
    00:00 +6°C° 0.5 mm 7 mps 726 mmHg 83%
    01:00 +6°C° 0.5 mm 7 mps 725 mmHg 80%
    02:00 +5°C° 0.3 mm 7 mps 726 mmHg 79%
    03:00 +5°C° 0.3 mm 8 mps 726 mmHg 78%
    04:00 +3°C° 0.3 mm 9 mps 727 mmHg 76%
    05:00 +3°C° 0.1 mm 9 mps 728 mmHg 72%
    06:00 +2°C° 0.1 mm 8 mps 729 mmHg 68%
    07:00 +1°C° 0.1 mm 8 mps 730 mmHg 64%
    08:00 +2°C° 0.1 mm 9 mps 730 mmHg 61%
    09:00 +3°C° 0.1 mm 10 mps 731 mmHg 58%
    10:00 +3°C° 0.1 mm 10 mps 732 mmHg 55%
    11:00 +3°C° 0.1 mm 10 mps 732 mmHg 54%
    12:00 +3°C° 0.1 mm 10 mps 733 mmHg 54%
    13:00 +5°C° 0.1 mm 10 mps 733 mmHg 53%
    14:00 +3°C° 0.1 mm 9 mps 733 mmHg 55%
    15:00 +4°C° 0.1 mm 8 mps 734 mmHg 57%
    16:00 +2°C° 0.1 mm 8 mps 734 mmHg 59%
    17:00 +3°C° 0 mm 7 mps 735 mmHg 61%
    18:00 +3°C° 0 mm 7 mps 735 mmHg 62%
    19:00 +2°C° 0 mm 6 mps 735 mmHg 64%
    20:00 +2°C° 0 mm 6 mps 736 mmHg 65%
    21:00 +2°C° 0 mm 6 mps 736 mmHg 66%
    22:00 +2°C° 0 mm 5 mps 736 mmHg 67%
    23:00 +2°C° 0 mm 5 mps 736 mmHg 68%

    25 October, Thursday

    Time Temperature Precipitation Wind Pressure Humidity
    00:00 +1°C° 0 mm 5 mps 736 mmHg 69%
    01:00 +1°C° 0 mm 5 mps 737 mmHg 70%
    02:00 +1°C° 0 mm 5 mps 737 mmHg 70%
    03:00 +1°C° 0 mm 5 mps 737 mmHg 70%
    04:00 +1°C° 0 mm 5 mps 737 mmHg 70%
    05:00 +1°C° 0.1 mm 4 mps 736 mmHg 71%
    06:00 +1°C° 0.1 mm 4 mps 736 mmHg 71%
    07:00 +1°C° 0.1 mm 4 mps 736 mmHg 72%
    08:00 +1°C° 0.6 mm 4 mps 735 mmHg 77%
    09:00 +1°C° 0.6 mm 4 mps 735 mmHg 81%
    10:00 +3°C° 0.6 mm 4 mps 734 mmHg 86%
    11:00 +3°C° 0.4 mm 5 mps 734 mmHg 86%
    12:00 +5°C° 0.4 mm 5 mps 733 mmHg 86%
    13:00 +7°C° 0.4 mm 6 mps 733 mmHg 86%
    14:00 +7°C° 0.2 mm 6 mps 733 mmHg 86%
    15:00 +6°C° 0.2 mm 7 mps 732 mmHg 86%
    16:00 +8°C° 0.2 mm 7 mps 732 mmHg 86%
    17:00 +8°C° 0.1 mm 7 mps 732 mmHg 84%
    18:00 +6°C° 0.1 mm 7 mps 732 mmHg 82%
    19:00 +6°C° 0.1 mm 7 mps 732 mmHg 80%
    20:00 +7°C° 0 mm 6 mps 732 mmHg 81%
    21:00 +7°C° 0 mm 6 mps 732 mmHg 81%
    22:00 +5°C° 0 mm 6 mps 732 mmHg 81%
    23:00 +5°C° 0 mm 6 mps 732 mmHg 82%
    Show more